Flag for Germany Weather past 2 weeks in Germering, Bavaria, Germany

Now
55 °F

Fog.


Feels Like: 55 °F
Forecast: 46 / 71 °F
Wind: 1 mph from North

Location: Landsberg

Current Time: Sep 17, 2014 at 1:51:08 AM

Latest Report: Sep 17, 2014 at 12:20 AM


Visibility: 1 mi

Pressure: 30.01 "Hg

Humidity: 94%

Dew point: 54 °F

Location of GermeringLocation

Historic Weather in Germering — Graph

°F

Germering temperature yesterday

Maximum temperature yesterday: 66 °F (at 3:20 PM)
Minimum temperature yesterday: 48 °F (at 2:20 AM)
Average temperature yesterday: 56 °F

Past Weeks' High & Low Weather Summary

 TemperatureHumidityPressure
High77 °F (Sep 8, 4:20 PM)100% (Sep 2, 11:20 PM)30.18 "Hg (Sep 2, 11:20 PM)
Low48 °F (Sep 11, 7:20 AM)44% (Sep 6, 3:20 PM)29.92 "Hg (Sep 6, 3:20 PM)
Average58 °F85%30.05 "Hg
* Reported Sep 2 12:20 AM — Sep 17 12:20 AM, Germering, Weather by CustomWeather, © 2014

Note: Actual official high and low records may vary slightly from our data, if they occured in-between our weather recording intervals... More about our weather records

Advertising

Germering weather history for previous 24 hours

 ConditionsComfort  
Time TempWeatherWind HumidityBarometerVisibility
12:20 AM
Sep 17
55 °FFog.1 mph94%30.01 "Hg1 mi
12:00 AM55 °FFog.3 mph100%30.01 "Hg1 mi
11:20 PM
Sep 16
55 °FFog.1 mph94%30.01 "Hg2 mi
10:20 PM55 °FFog.2 mph94%30.01 "Hg4 mi
9:20 PM57 °FFog.3 mph94%30.01 "Hg5 mi
8:20 PM59 °FPassing clouds.6 mph88%30.01 "HgN/A
7:20 PM61 °FPassing clouds.7 mph88%30.01 "HgN/A
7:03 PM63 °FPassing clouds.7 mph83%30.01 "HgN/A
6:20 PM64 °FPassing clouds.8 mph78%30.01 "HgN/A
5:20 PM66 °FPassing clouds.9 mph68%30.01 "HgN/A
4:20 PM66 °FPassing clouds.7 mph73%30.01 "HgN/A
3:20 PM66 °FPassing clouds.7 mph73%30.01 "HgN/A
2:20 PM64 °FPassing clouds.7 mph78%30.04 "Hg5 mi
1:20 PM61 °FScattered clouds.7 mph83%30.04 "Hg4 mi
12:47 PM59 °FFog.5 mph88%30.04 "Hg3 mi
12:20 PM59 °FFog.6 mph94%30.04 "Hg3 mi
11:20 AM55 °FFog.5 mph100%30.04 "Hg1 mi
10:20 AM54 °FFog.3 mph100%30.04 "Hg0 mi
9:20 AM52 °FFog.1 mph100%30.04 "Hg0 mi
8:20 AM50 °FFog.3 mph100%30.04 "Hg0 mi
7:20 AM50 °FFog.2 mph100%30.04 "Hg0 mi
6:20 AM50 °FFog.2 mph100%30.01 "Hg0 mi
5:20 AM50 °FFog.2 mph100%30.01 "Hg0 mi
4:20 AM50 °FFog.2 mph100%30.01 "Hg0 mi
3:20 AM48 °FFog.1 mph100%30.01 "Hg0 mi
2:20 AM48 °FFog.2 mph94%30.01 "Hg1 mi
1:20 AM50 °FFog.1 mph100%30.04 "Hg1 mi
Weather by CustomWeather, © 2014

See weather overviewHow to use our weather pages